EW8943 Weather Reports


Display with metric or nautical units.
time (UTC)temp
F
wind
direction
speed
MPH
gust
MPH
rain 1hr
in
rain 24hr
in
rain mn
in
humidity
%
barometer
mb
20260505041555 62 227 1.0 7.0 0.00 0.00 0.00 59 1008.1
20260505040049 62 207 0.0 7.0 0.00 0.00 0.00 57 1007.9
20260505034547 63 267 1.0 8.0 0.00 0.00 0.00 56 1007.8
20260505033048 63 252 1.0 7.0 0.00 0.00 0.00 54 1008.0
20260505031547 63 228 2.0 4.0 0.00 0.00 0.00 53 1008.1
20260505030105 64 227 2.0 4.0 0.00 0.00 0.00 52 1008.0
20260505024549 64 248 1.0 4.0 0.00 0.00 0.00 51 1008.0
20260505023045 64 236 1.0 5.0 0.00 0.00 0.00 50 1008.1
20260505021544 65 236 1.0 4.0 0.00 0.00 0.00 49 1008.2
20260505020044 65 240 1.0 4.0 0.00 0.00 0.00 48 1008.3
20260505014602 65 300 0.0 2.0 0.00 0.00 0.00 48 1008.2
20260505013050 66 261 0.0 2.0 0.00 0.00 0.00 47 1008.1
20260505011544 66 248 0.0 2.0 0.00 0.00 0.00 46 1008.0
20260505010052 67 243 0.0 3.0 0.00 0.00 0.00 45 1007.9
20260505004548 67 236 0.0 4.0 0.00 0.00 0.00 44 1007.7
20260505003054 68 237 0.0 3.0 0.00 0.00 0.00 44 1007.5
20260505001542 68 236 0.0 7.0 0.00 0.00 0.00 43 1007.5
20260505000040 69 236 2.0 4.0 0.00 0.00 0.00 42 1007.3
20260504234539 69 238 1.0 4.0 0.00 0.00 0.00 42 1007.3
20260504233039 70 194 2.0 7.0 0.00 0.00 0.00 41 1007.3
20260504231538 70 242 1.0 8.0 0.00 0.00 0.00 41 1007.3
20260504230038 70 280 2.0 7.0 0.00 0.00 0.00 41 1007.3
20260504224537 71 195 3.0 8.0 0.00 0.00 0.00 40 1007.3
20260504223055 72 227 1.0 9.0 0.00 0.00 0.00 39 1007.3
20260504221535 72 284 4.0 9.0 0.00 0.00 0.00 38 1007.4
20260504220034 71 197 1.0 10.0 0.00 0.00 0.00 39 1007.3
20260504214534 71 284 2.0 5.0 0.00 0.00 0.00 38 1007.5
20260504213033 71 180 4.0 10.0 0.00 0.00 0.00 38 1007.6
20260504211544 71 252 5.0 9.0 0.00 0.00 0.00 38 1007.6
20260504210036 71 278 3.0 9.0 0.00 0.00 0.00 38 1007.6
20260504204532 71 284 4.0 8.0 0.00 0.00 0.00 40 1007.6
20260504203028 71 289 4.0 11.0 0.00 0.00 0.00 39 1007.7
20260504201525 71 273 5.0 9.0 0.00 0.00 0.00 39 1008.0
20260504200025 70 278 6.0 10.0 0.00 0.00 0.00 42 1008.1
20260504194523 71 187 4.0 10.0 0.00 0.00 0.00 39 1008.3
20260504193022 71 194 3.0 8.0 0.00 0.00 0.00 40 1008.4
20260504191518 72 226 2.0 10.0 0.00 0.00 0.00 40 1008.6
20260504190016 72 287 6.0 10.0 0.00 0.00 0.00 38 1008.8
20260504184515 72 219 3.0 8.0 0.00 0.00 0.00 37 1008.8
20260504183013 72 297 5.0 9.0 0.00 0.00 0.00 38 1009.1
20260504181511 72 271 4.0 8.0 0.00 0.00 0.00 38 1009.4
20260504180010 71 219 5.0 11.0 0.00 0.00 0.00 38 1009.5
20260504174507 70 153 2.0 7.0 0.00 0.00 0.00 40 1009.7
20260504173005 70 286 4.0 9.0 0.00 0.00 0.00 39 1009.9
20260504171503 71 294 5.0 9.0 0.00 0.00 0.00 38 1010.2
20260504081524 40 287 0.0 1.0 0.00 0.00 0.00 78 1012.6